[[{"header":{"parameterUnit":"m.s-1","parameterCategory":1,"la1":30.2991,"la2":30.254,"lo1":-89.0895,"lo2":-89.0444,"dy":0.0017,"dx":0.0017,"nx":28,"ny":28,"refTime":"2024-06-29T03:00:00:Z","depth":0,"parameterNumber":2,"parameterNumberName":"U-component_of_WINDS"},"data":[0,0,0,0,0,0,0,0,0,0,0,0,0,0,0,0,0,0,0,0,0,0,0,0,0,0,0,0,0,0,0,0,0,0,0,0,0,0,0,0,0,0,0,0,0,0,0,0,0,0,0,0,0,0,0,0,0,0,2.0719,2.0719,0,2.0732,2.0732,2.0732,2.0628,2.0626,2.0623,2.062,2.0637,2.064,2.0643,0,0,0,0,0,0,0,0,0,0,0,0,0,2.0612,2.0614,2.0719,2.0719,2.0719,2.0732,2.0732,2.0732,2.0629,2.0625,2.0622,2.0619,2.0636,2.064,2.0643,0,0,0,0,0,0,0,0,0,0,0,0,0,2.0645,2.0615,2.0719,2.0669,2.0665,2.0732,2.0732,2.0732,2.063,2.0625,2.0621,2.0617,2.0635,2.0639,2.0644,2.076,0,0,2.0658,2.066,0,0,0,0,0,0,0,0,2.0643,2.0649,2.0676,2.0673,2.0668,2.0674,2.07,2.0742,2.0631,2.0643,2.062,2.0615,2.0653,2.0656,2.0668,2.0761,2.0762,2.0659,2.0662,2.0664,2.0665,0,0,0,0,0,0,0,2.0641,2.0648,2.0724,2.0677,2.0672,2.0648,2.0648,2.0708,2.0673,2.0642,2.0634,2.0637,2.065,2.0664,2.0668,2.0762,2.0659,2.0663,2.0666,2.0668,2.0957,2.0962,0,0,0,0,0,0,2.0645,2.0647,2.0724,2.0724,2.0645,2.0654,2.0654,2.0677,2.0671,2.0666,2.0641,2.0632,2.0658,2.0662,2.0668,2.0808,2.0664,2.0668,2.0671,2.0952,2.0958,2.0963,0,0,0,0,0,0,2.0643,2.0652,2.0723,2.0684,2.0691,2.066,2.0687,2.0679,2.0693,2.0671,2.0664,2.0661,2.0654,2.0661,2.0739,2.0807,2.067,2.0674,2.0947,2.0954,2.0961,2.1087,0,0,0,0,0,0,2.064,2.0652,2.0694,2.0685,2.0693,2.0793,2.0691,2.0682,2.0701,2.069,2.0688,2.0684,2.0652,2.0733,2.0744,2.0811,2.0678,2.094,2.095,2.0958,2.1076,2.1097,2.1115,0,0,0,0,0,2.0637,2.0729,2.0697,2.0707,2.0745,2.0796,2.0801,2.0761,2.0706,2.075,2.0737,2.0684,2.0797,2.0741,2.0753,2.0823,2.0936,2.0947,2.0958,2.1068,2.1093,2.1115,0,0,0,0,0,0,2.0747,2.0727,2.0691,2.0783,2.0792,2.0779,2.0832,2.0789,2.0815,2.0804,2.0754,2.0755,2.0843,2.084,2.0778,2.0938,2.0857,2.0871,2.0937,2.0961,2.098,2.098,2.0682,0,0,0,0,0,2.0782,2.0824,2.0804,2.0887,2.0894,2.0863,2.0883,2.0852,2.0861,2.0864,2.0856,2.0868,2.0907,2.0933,2.0967,2.1075,2.1076,2.1129,2.1148,2.1164,2.1178,2.124,2.1265,2.0999,2.0999,2.0999,0,0,2.0855,2.0849,2.0878,2.091,2.0913,2.0961,2.0867,2.0919,2.0955,2.0873,2.0947,2.0942,2.0951,2.1047,2.1088,2.1047,2.1252,2.1178,2.1191,2.1196,2.1254,2.1279,2.1302,2.1007,2.1005,2.1004,0,0,2.1012,2.101,2.1081,2.1088,2.1095,2.1074,2.1091,2.1085,2.1079,2.1152,2.1093,2.1136,2.1202,2.1213,2.1227,2.1394,2.1348,2.1406,2.1509,2.157,2.1592,2.161,2.1674,2.1697,2.1419,2.142,2.142,0,2.1102,2.1169,2.1124,2.1182,2.12,2.1127,2.1201,2.121,2.1228,2.1243,2.1197,2.1282,2.1283,2.1382,2.1423,2.1436,2.1457,2.1407,2.1592,2.161,2.1626,2.1687,2.1711,2.1427,2.1426,2.1425,2.1425,0,2.1282,2.133,2.1387,2.1408,2.1431,2.1497,2.1464,2.1494,2.1462,2.1448,2.1526,2.1525,2.156,2.1581,2.1549,2.1677,2.1653,2.16,2.1518,2.166,2.1717,2.1739,2.1438,2.1435,2.1433,2.1431,0,0,2.1509,2.1505,2.1528,2.1538,2.1542,2.158,2.1644,2.1678,2.1707,2.1723,2.1779,2.1838,2.1791,2.1807,2.1777,2.183,2.1969,2.1771,2.1771,2.1812,2.2116,2.2158,2.2186,2.1938,2.1942,2.1945,2.2117,0,2.1666,2.1775,2.1738,2.185,2.1896,2.183,2.1887,2.1898,2.1887,2.1927,2.1914,2.196,2.1891,2.1901,2.1951,2.1942,2.203,2.1928,2.1993,2.1996,2.1996,2.2214,2.2258,2.242,2.2138,2.2142,2.2144,0,2.1863,2.1889,2.2006,2.2006,2.2025,2.2076,2.2107,2.2144,2.2157,2.2145,2.2166,2.2126,2.2193,2.211,2.2204,2.2136,2.216,2.216,2.2166,2.2173,2.2081,2.2231,2.247,2.2496,2.2178,2.2175,2.2172,0,2.2023,2.2086,2.2165,2.2175,2.2177,2.2216,2.2219,2.2226,2.2251,2.2278,2.2294,2.2329,2.235,2.2379,2.2351,2.2292,2.2452,2.2365,2.2448,2.2449,2.2486,2.2485,2.2737,2.2496,2.2496,2.2495,2.2495,0,2.2204,2.228,2.2237,2.2287,2.2371,2.2328,2.2413,2.2409,2.2417,2.2467,2.2411,2.246,2.2417,2.2463,2.2441,2.2526,2.2534,2.253,2.2524,2.2537,2.2539,2.2555,2.2544,2.2502,2.25,2.2499,2.2498,0,2.2397,2.2371,2.2454,2.245,2.245,2.2513,2.2511,2.2558,2.2543,2.2608,2.262,2.2599,2.265,2.2625,2.2677,2.2663,2.2774,2.2751,2.277,2.2765,2.2852,2.2846,2.3125,2.3162,2.2895,2.2897,2.2899,0,2.2516,2.2572,2.2575,2.2604,2.2611,2.2658,2.2683,2.2645,2.2674,2.2695,2.2742,2.2788,2.2823,2.2909,2.29,2.2942,2.2922,2.3017,2.2928,2.2941,2.2929,2.2928,2.2935,2.3036,2.3039,2.3042,2.3044,0,2.2731,2.2717,2.2754,2.279,2.2822,2.2848,2.2869,2.2897,2.2859,2.2896,2.2948,2.2975,2.3031,2.308,2.3117,2.3122,2.308,2.3072,2.3094,2.311,2.312,2.3121,2.2823,2.3066,2.3064,2.3062,2.3061,2.306,2.2893,2.2943,2.2954,2.2999,2.3012,2.3034,2.308,2.3072,2.3114,2.3157,2.3132,2.3194,2.321,2.3255,2.3267,2.3318,2.328,2.3311,2.332,2.3329,2.3343,2.311,2.3324,2.3323,2.3322,2.3322,2.3321,0,2.311,2.3114,2.3157,2.3189,2.3227,2.3181,2.3204,2.3239,2.3294,2.3311,2.3348,2.3411,2.3459,2.3455,2.35,2.3541,2.3523,2.3555,2.3553,2.3557,2.3371,2.335,2.3569,2.3569,2.3569,2.3569,2.3569,2.3569,2.3227,2.331,2.3298,2.3388,2.3392,2.3452,2.347,2.3492,2.3506,2.3579,2.3618,2.3615,2.3625,2.3671,2.3715,2.3713,2.3734,2.3774,2.3766,2.3593,2.3569,2.3545,2.3525,2.3778,2.3778,2.3947,2.3949,2.395]},{"header":{"parameterUnit":"m.s-1","parameterCategory":1,"la1":30.2991,"la2":30.254,"lo1":-89.0895,"lo2":-89.0444,"dy":0.0017,"dx":0.0017,"nx":28,"ny":28,"refTime":"2024-06-29T03:00:00:Z","depth":0,"parameterNumber":3,"parameterNumberName":"V-component_of_WINDS"},"data":[0,0,0,0,0,0,0,0,0,0,0,0,0,0,0,0,0,0,0,0,0,0,0,0,0,0,0,0,0,0,0,0,0,0,0,0,0,0,0,0,0,0,0,0,0,0,0,0,0,0,0,0,0,0,0,0,0,0,-1.3877,-1.3876,0,-1.3786,-1.3785,-1.3784,-1.3796,-1.3797,-1.3799,-1.38,-1.3694,-1.369,-1.3685,0,0,0,0,0,0,0,0,0,0,0,0,0,-1.4049,-1.4046,-1.3877,-1.3876,-1.3875,-1.3786,-1.3785,-1.3784,-1.3796,-1.3798,-1.3799,-1.3801,-1.3695,-1.369,-1.3685,0,0,0,0,0,0,0,0,0,0,0,0,0,-1.3967,-1.4044,-1.3877,-1.3871,-1.3869,-1.3786,-1.3785,-1.3783,-1.3795,-1.3798,-1.38,-1.3802,-1.3697,-1.3691,-1.3684,-1.3599,0,0,-1.3665,-1.3662,0,0,0,0,0,0,0,0,-1.3972,-1.3961,-1.3873,-1.3871,-1.3869,-1.3805,-1.3806,-1.3721,-1.3795,-1.3823,-1.3801,-1.3803,-1.3728,-1.3719,-1.3697,-1.3594,-1.3589,-1.3664,-1.366,-1.3658,-1.3656,0,0,0,0,0,0,0,-1.3977,-1.3965,-1.3841,-1.3871,-1.3869,-1.3868,-1.3859,-1.379,-1.3763,-1.3821,-1.3821,-1.3811,-1.3727,-1.3703,-1.3694,-1.3587,-1.3664,-1.3659,-1.3655,-1.3652,-1.3406,-1.3404,0,0,0,0,0,0,-1.3987,-1.3969,-1.3844,-1.3838,-1.3928,-1.3863,-1.3853,-1.3823,-1.3764,-1.3758,-1.3809,-1.3812,-1.3713,-1.3702,-1.369,-1.3584,-1.3658,-1.3652,-1.3648,-1.3409,-1.3406,-1.3403,0,0,0,0,0,0,-1.399,-1.3975,-1.3847,-1.3904,-1.3888,-1.3858,-1.3824,-1.382,-1.3796,-1.3756,-1.375,-1.379,-1.3714,-1.3699,-1.3622,-1.3581,-1.3649,-1.3643,-1.3412,-1.3408,-1.3404,-1.3372,0,0,0,0,0,0,-1.3995,-1.3977,-1.3947,-1.3903,-1.3885,-1.3784,-1.3821,-1.3816,-1.3786,-1.3789,-1.3736,-1.3729,-1.3715,-1.3631,-1.3615,-1.3573,-1.3638,-1.3416,-1.341,-1.3406,-1.3377,-1.3368,-1.336,0,0,0,0,0,-1.4001,-1.3939,-1.3945,-1.393,-1.3847,-1.3782,-1.377,-1.3759,-1.3783,-1.375,-1.3724,-1.3731,-1.3589,-1.3623,-1.3605,-1.3561,-1.3418,-1.3412,-1.3406,-1.3381,-1.337,-1.336,0,0,0,0,0,0,-1.3974,-1.3933,-1.394,-1.3862,-1.3826,-1.3784,-1.3743,-1.3748,-1.37,-1.3704,-1.3688,-1.3676,-1.3596,-1.3571,-1.361,-1.3473,-1.3506,-1.3496,-1.3493,-1.3482,-1.3474,-1.348,-1.3632,0,0,0,0,0,-1.396,-1.3914,-1.3879,-1.3814,-1.3796,-1.3773,-1.3743,-1.3738,-1.3698,-1.3681,-1.3649,-1.3606,-1.3552,-1.3516,-1.3463,-1.3374,-1.336,-1.3334,-1.3326,-1.3319,-1.331,-1.3257,-1.3244,-1.3383,-1.3383,-1.3383,0,0,-1.3928,-1.39,-1.3871,-1.3808,-1.3779,-1.3728,-1.3759,-1.3704,-1.3664,-1.3671,-1.3596,-1.3572,-1.3522,-1.3438,-1.3399,-1.3414,-1.3269,-1.3311,-1.3306,-1.33,-1.325,-1.3237,-1.3225,-1.3379,-1.338,-1.338,0,0,-1.3844,-1.382,-1.3763,-1.3734,-1.3691,-1.3676,-1.3662,-1.362,-1.3605,-1.3531,-1.3535,-1.3485,-1.3392,-1.3356,-1.3326,-1.3228,-1.3231,-1.3211,-1.3166,-1.3115,-1.3104,-1.3095,-1.3057,-1.3044,-1.3203,-1.3203,-1.3203,0,-1.3809,-1.3736,-1.3731,-1.3676,-1.3646,-1.3655,-1.3593,-1.3564,-1.3505,-1.3482,-1.3501,-1.3384,-1.3351,-1.3258,-1.3234,-1.321,-1.319,-1.3216,-1.3107,-1.3097,-1.3088,-1.3051,-1.3038,-1.32,-1.3201,-1.3201,-1.3201,0,-1.3693,-1.3643,-1.36,-1.3548,-1.3513,-1.3455,-1.3437,-1.3402,-1.34,-1.3381,-1.3303,-1.3265,-1.3204,-1.3182,-1.3178,-1.3087,-1.3097,-1.3112,-1.3144,-1.3073,-1.3038,-1.3024,-1.3197,-1.3198,-1.3199,-1.3199,0,0,-1.3587,-1.3534,-1.3518,-1.3494,-1.3448,-1.3406,-1.3346,-1.3292,-1.326,-1.3219,-1.3166,-1.3087,-1.3101,-1.3066,-1.3058,-1.3014,-1.2936,-1.3034,-1.3032,-1.3014,-1.2829,-1.2816,-1.2801,-1.2939,-1.2936,-1.2934,-1.2832,0,-1.3497,-1.3397,-1.3391,-1.3298,-1.3249,-1.3257,-1.3204,-1.3168,-1.3149,-1.3101,-1.3078,-1.3022,-1.3046,-1.3025,-1.2982,-1.2955,-1.2898,-1.2962,-1.2884,-1.2881,-1.2894,-1.2783,-1.2769,-1.2675,-1.2819,-1.2817,-1.2815,0,-1.3378,-1.3337,-1.3241,-1.3201,-1.318,-1.3134,-1.3082,-1.3038,-1.2995,-1.2984,-1.2946,-1.2944,-1.2878,-1.2915,-1.2822,-1.2866,-1.2833,-1.2815,-1.2811,-1.28,-1.2842,-1.2766,-1.2645,-1.263,-1.2794,-1.2796,-1.2797,0,-1.3306,-1.3227,-1.3159,-1.3138,-1.3091,-1.3057,-1.3035,-1.2996,-1.2963,-1.2916,-1.2893,-1.2838,-1.2807,-1.2762,-1.2743,-1.2773,-1.2649,-1.2686,-1.2634,-1.2635,-1.2605,-1.2607,-1.2474,-1.259,-1.259,-1.259,-1.2591,0,-1.3204,-1.3144,-1.3127,-1.3084,-1.3016,-1.3008,-1.2939,-1.2918,-1.2882,-1.2833,-1.2835,-1.2787,-1.2767,-1.2715,-1.2699,-1.2622,-1.2608,-1.2594,-1.259,-1.2592,-1.2594,-1.2568,-1.2573,-1.2587,-1.2587,-1.2588,-1.2589,0,-1.3112,-1.3098,-1.3024,-1.2987,-1.2976,-1.2926,-1.2892,-1.2849,-1.2832,-1.2769,-1.2753,-1.2724,-1.2663,-1.2641,-1.2565,-1.2554,-1.2464,-1.2467,-1.2479,-1.2477,-1.2426,-1.243,-1.227,-1.2247,-1.2381,-1.238,-1.2379,0,-1.3046,-1.3,-1.2959,-1.2928,-1.2906,-1.2856,-1.2823,-1.2813,-1.2777,-1.2726,-1.2688,-1.2628,-1.2579,-1.248,-1.2449,-1.239,-1.2389,-1.2337,-1.238,-1.2383,-1.2384,-1.2386,-1.238,-1.2328,-1.2327,-1.2326,-1.2325,0,-1.2929,-1.2925,-1.2881,-1.2833,-1.2795,-1.2756,-1.2718,-1.2691,-1.2674,-1.2634,-1.2574,-1.2536,-1.2461,-1.2399,-1.234,-1.2311,-1.2313,-1.2312,-1.2297,-1.2296,-1.2305,-1.2296,-1.2454,-1.2315,-1.2316,-1.2317,-1.2317,-1.2318,-1.2845,-1.2805,-1.277,-1.2719,-1.269,-1.2655,-1.2612,-1.2591,-1.2543,-1.2483,-1.2479,-1.2413,-1.2369,-1.229,-1.2259,-1.2204,-1.2217,-1.2195,-1.2189,-1.2183,-1.2178,-1.2317,-1.2193,-1.2193,-1.2193,-1.2194,-1.2194,0,-1.2726,-1.2705,-1.2659,-1.2607,-1.2566,-1.2578,-1.2536,-1.25,-1.2443,-1.2405,-1.2358,-1.2287,-1.2228,-1.2194,-1.2133,-1.2095,-1.2094,-1.2079,-1.208,-1.2073,-1.2171,-1.2189,-1.2081,-1.2081,-1.2081,-1.2081,-1.2081,-1.2081,-1.2659,-1.2591,-1.2582,-1.2498,-1.2475,-1.2414,-1.2389,-1.2355,-1.2324,-1.2246,-1.2199,-1.2179,-1.214,-1.2077,-1.2022,-1.2013,-1.1989,-1.1972,-1.1963,-1.2055,-1.2066,-1.2077,-1.2094,-1.1968,-1.1968,-1.1869,-1.1868,-1.1868]}]]